Location: Granada Hills
(34.2650°N, 118.5220°W)
Time: 06:37:05
(UTC-07:00)

deb Kosmos-1763 - Visible Passes

Search period start: 04 July 2015 00:00
Search period end: 14 July 2015 00:00
Orbit: 534 x 547 km, 74.0° (Epoch: 03 July)

Date Brightness Start Highest point End Pass type
(mag) Time Alt. Az. Time Alt. Az. Time Alt. Az.
04 Jul 4.8 21:48:50 10° SSW 21:52:44 60° WNW 21:56:40 10° N visible
05 Jul 5.1 21:41:26 10° SSW 21:45:17 52° WNW 21:49:11 10° N visible
06 Jul 5.4 21:34:02 10° SW 21:37:51 45° WNW 21:41:40 10° N visible
07 Jul 5.7 21:26:38 10° SW 21:30:23 39° WNW 21:34:07 10° N visible
08 Jul 6.1 21:19:16 10° SW 21:22:55 34° WNW 21:26:33 10° N visible
09 Jul 6.4 21:11:53 10° SW 21:15:26 30° WNW 21:18:57 10° N visible
10 Jul 6.7 21:04:31 10° SW 21:07:57 27° WNW 21:11:20 10° N visible
11 Jul 7.0 20:57:11 10° WSW 21:00:27 24° WNW 21:03:41 10° NNW visible
12 Jul 8.4 05:23:00 10° NE 05:24:03 11° ENE 05:25:19 10° ENE visible
12 Jul 7.3 20:49:51 10° WSW 20:52:57 21° WNW 20:56:00 10° NNW visible
13 Jul 8.0 05:14:55 10° NE 05:16:34 12° ENE 05:18:25 10° E visible
13 Jul 7.5 20:42:33 10° WSW 20:45:27 19° WNW 20:48:16 10° NNW visible
